Tracking 25711 objects as of 22-May-2022
HD Live streaming from Space Station
objects crossing your sky now

THEA

Track THEA now!
10-day predictions


NORAD ID: 43796
Int'l Code: 2018-099AQ
Perigee: 572.6 km
Apogee: 591.5 km
Inclination: 97.6 °
Period: 96.2 minutes
Semi major axis: 6953 km
RCS: Unknown
Launch date: December 3, 2018
Source: United States (US)
Launch site: AIR FORCE WESTERN TEST RANGE (AFWTR)
aabbcc
Your satellite tracking list
Your tracking list is empty




NASA's NSSDC Master Catalog

Two Line Element Set (TLE):
1 43796U 18099AQ  22142.46735578  .00005218  00000-0  45277-3 0  9996
2 43796  97.6239 211.4467 0013637 343.8000  16.2785 14.97407462189236
Source of the keplerian elements: AFSPC